GW0409 Weather Reports


Display with metric or nautical units.
time (UTC)temp
F
wind
direction
speed
MPH
gust
MPH
rain 1hr
in
rain 24hr
in
rain mn
in
humidity
%
barometer
mb
20260509115017 50 349 2.0 2.0 0.00 0.00 0.00 70 1015.4
20260509114018 50 334 2.0 2.0 0.00 0.00 0.00 70 1015.4
20260509113018 50 339 1.0 2.0 0.00 0.00 0.00 71 1015.3
20260509112018 50 349 2.0 3.0 0.00 0.00 0.00 70 1015.2
20260509111018 50 342 2.0 3.0 0.00 0.00 0.00 69 1015.2
20260509110018 50 339 3.0 4.0 0.00 0.00 0.00 69 1015.2
20260509105015 50 339 2.0 3.0 0.00 0.00 0.00 69 1015.1
20260509104019 50 332 2.0 3.0 0.00 0.00 0.00 68 1015.0
20260509103021 50 341 2.0 3.0 0.00 0.00 0.00 68 1014.9
20260509102017 50 339 2.0 4.0 0.00 0.00 0.00 69 1014.9
20260509101019 50 344 2.0 2.0 0.00 0.00 0.00 68 1014.8
20260509100018 50 342 2.0 2.0 0.00 0.00 0.00 67 1014.8
20260509095037 51 339 2.0 3.0 0.00 0.00 0.00 67 1014.8
20260509094020 51 347 2.0 2.0 0.00 0.00 0.00 65 1014.7
20260509093020 52 334 1.0 2.0 0.00 0.00 0.00 64 1014.5
20260509092017 52 321 1.0 3.0 0.00 0.00 0.00 63 1014.4
20260509091017 52 328 2.0 3.0 0.00 0.00 0.00 62 1014.3
20260509090017 52 329 2.0 5.0 0.00 0.00 0.00 62 1014.2
20260509085019 52 339 3.0 4.0 0.00 0.00 0.00 62 1014.2
20260509084018 52 342 3.0 6.0 0.00 0.00 0.00 61 1014.2
20260509083019 52 337 2.0 4.0 0.00 0.00 0.00 61 1014.2
20260509082018 52 337 2.0 4.0 0.00 0.00 0.00 59 1014.1
20260509081019 52 327 2.0 3.0 0.00 0.00 0.00 59 1014.0
20260509080019 52 343 2.0 3.0 0.00 0.00 0.00 59 1014.0
20260509075017 52 313 1.0 3.0 0.00 0.00 0.00 58 1013.9
20260509074019 52 293 1.0 2.0 0.00 0.00 0.00 57 1013.9
20260509073039 52 330 2.0 2.0 0.00 0.00 0.00 56 1013.8
20260509072019 52 326 1.0 2.0 0.00 0.00 0.00 57 1013.8
20260509071019 52 338 2.0 3.0 0.00 0.00 0.00 56 1013.7
20260509070016 53 339 2.0 3.0 0.00 0.00 0.00 55 1013.6
20260509065057 53 331 2.0 3.0 0.00 0.00 0.00 52 1013.5
20260509064020 54 286 0.0 2.0 0.00 0.00 0.00 51 1013.4
20260509063017 54 262 1.0 4.0 0.00 0.00 0.00 49 1013.3
20260509062039 54 272 0.0 3.0 0.00 0.00 0.00 51 1013.2
20260509061017 55 0.0 0.0 0.00 0.00 0.00 51 1013.0
20260509060017 55 0.0 0.0 0.00 0.00 0.00 51 1012.9
20260509055020 55 0.0 0.0 0.00 0.00 0.00 51 1012.8
20260509054018 55 0.0 0.0 0.00 0.00 0.00 51 1012.7
20260509053017 56 0.0 0.0 0.00 0.00 0.00 50 1012.7
20260509052018 56 0.0 0.0 0.00 0.00 0.00 50 1012.7
20260509051018 57 0.0 0.0 0.00 0.00 0.00 48 1012.5
20260509050057 57 305 1.0 3.0 0.00 0.00 0.00 47 1012.5
20260509045019 57 0.0 0.0 0.00 0.00 0.00 48 1012.4
20260509044018 58 339 0.0 2.0 0.00 0.00 0.00 46 1012.3
20260509043020 58 338 2.0 5.0 0.00 0.00 0.00 45 1012.2
20260509042016 58 342 1.0 3.0 0.00 0.00 0.00 45 1012.0
20260509041018 58 336 2.0 3.0 0.00 0.00 0.00 45 1011.9
20260509040020 58 339 2.0 3.0 0.00 0.00 0.00 46 1011.8
20260509035017 59 340 2.0 3.0 0.00 0.00 0.00 44 1011.6
20260509034017 60 343 1.0 2.0 0.00 0.00 0.00 44 1011.5
20260509033017 60 344 1.0 4.0 0.00 0.00 0.00 42 1011.4
20260509032017 61 347 1.0 3.0 0.00 0.00 0.00 42 1011.4
20260509031020 61 0.0 0.0 0.00 0.00 0.00 41 1011.2
20260509030017 61 326 1.0 4.0 0.00 0.00 0.00 39 1011.1
20260509025017 62 317 1.0 4.0 0.00 0.00 0.00 39 1011.0
20260509024018 62 291 1.0 4.0 0.00 0.00 0.00 39 1010.9
20260509023038 62 350 2.0 5.0 0.00 0.00 0.00 38 1010.9
20260509022018 63 318 2.0 6.0 0.00 0.00 0.00 38 1010.8
20260509021018 63 353 2.0 7.0 0.00 0.00 0.00 40 1010.7
20260509020019 63 325 1.0 4.0 0.00 0.00 0.00 41 1010.6
20260509015019 64 305 2.0 6.0 0.00 0.00 0.00 41 1010.5
20260509014019 64 269 2.0 6.0 0.00 0.00 0.00 41 1010.4
20260509013016 65 251 1.0 4.0 0.00 0.00 0.00 40 1010.2
20260509012038 65 220 2.0 5.0 0.00 0.00 0.00 39 1010.2
20260509011019 65 241 1.0 5.0 0.00 0.00 0.00 39 1010.1
20260509010020 65 283 1.0 5.0 0.00 0.00 0.00 38 1010.1
20260509005037 65 282 2.0 6.0 0.00 0.00 0.00 39 1010.0
20260509004037 65 161 1.0 3.0 0.00 0.00 0.00 39 1010.0
20260509003017 65 213 1.0 3.0 0.00 0.00 0.00 40 1010.0
20260509002017 65 181 2.0 6.0 0.00 0.00 0.00 40 1010.0
20260509001018 65 241 2.0 4.0 0.00 0.00 0.00 39 1010.0
20260509000017 65 232 1.0 4.0 0.00 0.00 0.00 40 1010.0
20260508235017 64 282 1.0 4.0 0.00 0.00 0.00 39 1010.0
20260508234018 64 210 1.0 4.0 0.00 0.00 0.00 39 1009.9
20260508233020 65 195 2.0 5.0 0.00 0.00 0.00 39 1009.8
20260508232018 65 210 1.0 3.0 0.00 0.00 0.00 39 1009.8
20260508231040 65 252 1.0 4.0 0.00 0.00 0.00 38 1009.7
20260508230018 65 283 1.0 5.0 0.00 0.00 0.00 38 1009.6
20260508225019 65 230 3.0 5.0 0.00 0.00 0.00 38 1009.6
20260508224019 65 227 1.0 3.0 0.00 0.00 0.00 38 1009.5
20260508223036 66 200 2.0 6.0 0.00 0.00 0.00 37 1009.5
20260508222019 65 201 2.0 4.0 0.00 0.00 0.00 37 1009.4
20260508221043 65 170 1.0 3.0 0.00 0.00 0.00 37 1009.3
20260508220020 65 190 1.0 4.0 0.00 0.00 0.00 36 1009.3
20260508215018 64 30 1.0 5.0 0.00 0.00 0.00 38 1009.5
20260508214037 64 181 1.0 4.0 0.00 0.00 0.00 37 1009.4
20260508213017 64 197 1.0 3.0 0.00 0.00 0.00 37 1009.3
20260508212019 63 88 1.0 3.0 0.00 0.00 0.00 38 1009.3
20260508211017 64 163 1.0 3.0 0.00 0.00 0.00 38 1009.3
20260508210119 63 146 0.0 2.0 0.00 0.00 0.00 38 1009.3
20260508205018 63 197 1.0 4.0 0.00 0.00 0.00 40 1009.4
20260508204018 63 212 1.0 3.0 0.00 0.00 0.00 42 1009.4
20260508203038 62 128 1.0 4.0 0.00 0.00 0.00 42 1009.4
20260508202019 61 185 2.0 4.0 0.00 0.00 0.00 44 1009.5
20260508201018 61 256 1.0 3.0 0.00 0.00 0.00 44 1009.6
20260508200020 61 220 1.0 4.0 0.00 0.00 0.00 44 1009.7
20260508195019 60 263 1.0 4.0 0.00 0.00 0.00 44 1009.8
20260508194016 60 350 1.0 4.0 0.00 0.00 0.00 46 1009.8
20260508193016 59 272 1.0 3.0 0.00 0.00 0.00 47 1009.8
20260508192020 59 300 2.0 4.0 0.00 0.00 0.00 48 1009.8
20260508191019 59 45 2.0 6.0 0.00 0.00 0.00 49 1009.8
20260508190021 58 17 2.0 5.0 0.00 0.00 0.00 51 1009.8
20260508185020 57 16 3.0 6.0 0.00 0.00 0.00 51 1009.8
20260508184017 57 16 4.0 7.0 0.00 0.00 0.00 53 1009.8
20260508183017 56 358 2.0 6.0 0.00 0.00 0.00 54 1009.9
20260508182018 56 5 3.0 6.0 0.00 0.00 0.00 55 1010.0
20260508181019 56 10 3.0 8.0 0.00 0.00 0.00 54 1010.1
20260508180017 55 356 3.0 6.0 0.00 0.00 0.00 56 1010.0
20260508175018 55 353 3.0 5.0 0.00 0.00 0.00 55 1010.1
20260508174018 55 359 3.0 5.0 0.00 0.00 0.00 55 1010.2
20260508173100 54 356 2.0 4.0 0.00 0.00 0.00 57 1010.2
20260508172020 53 17 2.0 5.0 0.00 0.00 0.00 57 1010.2
20260508171019 53 354 1.0 4.0 0.00 0.00 0.00 57 1010.2
20260508170039 52 5 2.0 5.0 0.00 0.00 0.00 58 1010.2
20260508165016 52 10 4.0 8.0 0.00 0.00 0.00 58 1010.2
20260508164016 52 23 2.0 5.0 0.00 0.00 0.00 59 1010.3
20260508163019 52 8 2.0 6.0 0.00 0.00 0.00 60 1010.3
20260508162020 51 6 2.0 6.0 0.00 0.00 0.00 60 1010.2
20260508161017 51 357 1.0 5.0 0.00 0.00 0.00 62 1010.3
20260508160019 50 6 2.0 5.0 0.00 0.00 0.00 63 1010.2
20260508155017 49 1 3.0 7.0 0.00 0.00 0.00 64 1010.3
20260508154017 49 5 3.0 8.0 0.00 0.00 0.00 66 1010.3
20260508153018 48 23 4.0 7.0 0.00 0.00 0.00 67 1010.4
20260508152018 48 19 2.0 7.0 0.00 0.00 0.00 67 1010.5
20260508151018 47 30 3.0 8.0 0.00 0.00 0.00 67 1010.4
20260508150017 47 38 2.0 4.0 0.00 0.00 0.00 68 1010.4
20260508145018 47 305 2.0 4.0 0.00 0.00 0.00 69 1010.4
20260508144018 46 7 2.0 5.0 0.00 0.00 0.00 69 1010.4
20260508143018 46 14 3.0 6.0 0.00 0.00 0.00 71 1010.4
20260508142019 45 340 1.0 5.0 0.00 0.00 0.00 71 1010.4
20260508141039 45 21 3.0 7.0 0.00 0.00 0.00 70 1010.3
20260508140019 45 15 2.0 7.0 0.00 0.00 0.00 71 1010.3
20260508135040 45 22 3.0 6.0 0.00 0.00 0.00 70 1010.3
20260508134016 45 20 3.0 6.0 0.00 0.00 0.00 70 1010.3
20260508133021 45 23 2.0 5.0 0.00 0.00 0.00 70 1010.2
20260508132021 45 24 4.0 8.0 0.00 0.00 0.00 70 1010.2
20260508131020 45 17 4.0 6.0 0.00 0.00 0.00 69 1010.3
20260508130017 45 18 4.0 8.0 0.00 0.00 0.00 68 1010.4
20260508125017 45 13 4.0 7.0 0.00 0.00 0.00 68 1010.4
20260508124038 45 11 4.0 6.0 0.00 0.00 0.00 68 1010.5
20260508123017 46 11 3.0 4.0 0.00 0.00 0.00 67 1010.5
20260508122019 46 2 2.0 3.0 0.00 0.00 0.00 65 1010.5
20260508121018 46 10 3.0 4.0 0.00 0.00 0.00 65 1010.5
20260508120040 46 7 3.0 5.0 0.00 0.00 0.00 65 1010.6